Location: Newark
(23.1300°N, 73.6109°E)
Time: 16:46:36
(UTC+00:00)

NOAA 18 - Pass Details

Date: 06 July 2020
Orbit: 839 x 862 km, 99.0° (Epoch: 05 August)

Event Time Altitude Azimuth Distance (km) Brightness Sun altitude
Exits shadow 17:13:25 20° 266° (W) 1,898 7.2 -36.1°
Drops below altitude 10° 17:17:05 10° 308° (NW) 2,493 8.3 -36.6°
Sets 17:20:08 0° 325° (NW) 3,429 9.3 -37.0°
